Location: *
(55.5817°S, 142.4781°W)
Time: 06:10:11
(UTC+00:00)

Helios 1A Rocket - Pass Details

Date: 29 April 2025
Orbit: 469 x 482 km, 98.3° (Epoch: 23 May)

Event Time Altitude Azimuth Distance (km) Brightness Sun altitude
Rises 14:48:16 0° 168° (SSE) 2,608 6.4 -17.5°
Reaches altitude 10° 14:50:24 10° 174° (S) 1,715 5.4 -17.2°
Maximum altitude 14:53:57 45° 247° (WSW) 684 2.8 -16.7°
Enters shadow 14:54:58 35° 292° (WNW) 820 3.2 -16.6°
